Weather History for Mildenhall RAF, United Kingdom

Change the Weather History Date:

Thursday, October 17, 2013

  Actual Average (EGSC) Record (EGSC)
Temperature  
Mean Temperature 56 °F -  
Max Temperature 63 °F 57 °F 66 °F (1997)
Min Temperature 50 °F 45 °F 33 °F (1996)
Degree Days  
Heating Degree Days 8    
Growing Degree Days 6 (Base 50)    
Moisture  
Dew Point 47 °F    
Average Humidity 72    
Maximum Humidity 86    
Minimum Humidity 55    
Precipitation  
Precipitation 0.00 in - - ()
Sea Level Pressure  
Sea Level Pressure 29.89 in    
Wind  
Wind Speed 10 mph ()    
Max Wind Speed 18 mph    
Max Gust Speed 23 mph    
Visibility 6.2 miles    
Events Rain    
Averages and records for this station are not official NWS values.
T = Trace of Precipitation, MM = Missing Value Source: Averaged Metar Reports

Daily Weather History Graph

Daily Weather History Graph

Search for Another Location

Airport:

Trip Planner

Search our weather history database for the weather conditions in past years. The results will help you decide how hot, cold, wet, or windy it might be!

Date:

Astronomy

Oct. 17, 2013 Rise Set
Actual Time 7:26 AM BST 5:58 PM BST
Civil Twilight 6:52 AM BST 6:33 PM BST
Nautical Twilight 6:12 AM BST 7:12 PM BST
Astronomical Twilight 5:33 AM BST 7:52 PM BST
Moon 5:10 PM BST (10/17) 5:33 AM BST (10/17)
Length of Visible Light 11h 40m
Length of Day
10h 31m
Waxing Gibbous, 97% of the Moon is Illuminated
Oct 17
Waxing Gibbous
Oct 19
Full
Oct 27
Last Quarter
Nov 3
New
Nov 10
First Quarter

Hourly Weather History & Observations

Time (BST) Temp. Dew Point Humidity Pressure Visibility Wind Dir Wind Speed Gust Speed Precip Events Conditions
12:59 AM 53.6 °F 46.4 °F 77% 29.75 in 6.2 mi SW 15.0 mph - N/A   Clear
1:57 AM 53.6 °F 46.4 °F 77% 29.71 in 6.2 mi SW 18.4 mph - N/A   Clear
2:57 AM 53.6 °F 46.4 °F 77% 29.73 in 6.2 mi WSW 15.0 mph - N/A   Clear
3:59 AM 53.6 °F 46.4 °F 77% 29.77 in 6.2 mi WSW 16.1 mph 23.0 mph N/A   Clear
4:57 AM 51.8 °F 46.4 °F 82% 29.75 in 6.2 mi WSW 12.7 mph - N/A   Clear
5:58 AM 51.8 °F 46.4 °F 82% 29.76 in 6.2 mi WSW 12.7 mph - N/A   Clear
6:57 AM 51.8 °F 46.4 °F 82% - 6.2 mi SW 12.7 mph - N/A   Clear
7:57 AM 51.8 °F 46.4 °F 82% 29.80 in 6.2 mi WSW 11.5 mph - N/A   Clear
8:57 AM 53.6 °F 48.2 °F 82% 29.83 in 6.2 mi West 12.7 mph - N/A   Clear
9:59 AM 57.2 °F 50.0 °F 77% 29.86 in 6.2 mi West 11.5 mph - N/A   Clear
11:00 AM 59.0 °F 48.2 °F 67% 29.84 in 6.2 mi West 13.8 mph - N/A   Partly Cloudy
11:56 AM 60.8 °F 48.2 °F 63% 29.87 in 6.2 mi West 17.3 mph - N/A   Partly Cloudy
12:00 PM 60.4 °F 46.2 °F 59% 29.88 in 6.2 mi West 11.5 mph - N/A   Mostly Cloudy
12:42 PM 62.6 °F 46.4 °F 55% 29.88 in 6.2 mi WNW 12.7 mph - N/A   Mostly Cloudy
1:00 PM 60.4 °F 46.2 °F 59% 29.90 in 6.2 mi WNW 12.7 mph - N/A   Mostly Cloudy
1:55 PM 60.8 °F 46.4 °F 59% 29.88 in 6.2 mi West 11.5 mph - N/A   Mostly Cloudy
2:55 PM 62.6 °F 46.4 °F 55% 29.89 in 6.2 mi West 15.0 mph - N/A   Mostly Cloudy
3:58 PM 62.1 °F 45.7 °F 55% 29.92 in 6.2 mi West 13.8 mph - N/A   Scattered Clouds
4:58 PM 60.1 °F 47.3 °F 63% 29.93 in 6.2 mi West 8.1 mph - N/A   Overcast
5:25 PM 59.0 °F 46.4 °F 63% 29.93 in 6.2 mi West 9.2 mph - N/A Rain Light Rain
5:29 PM 59.0 °F 46.4 °F 63% 29.93 in 6.2 mi West 9.2 mph - N/A   Partly Cloudy
5:30 PM 59.0 °F 46.4 °F 63% 29.93 in 6.2 mi West 9.2 mph - N/A Rain Light Rain
5:32 PM 57.2 °F 46.4 °F 67% 29.93 in 6.2 mi West 9.2 mph - N/A   Partly Cloudy
5:58 PM 55.6 °F 46.4 °F 71% 29.94 in 6.2 mi West 5.8 mph - 0.00 in   Partly Cloudy
6:23 PM 55.4 °F 46.4 °F 72% 29.94 in 6.2 mi SSW 2.3 mph - N/A Rain Light Rain
6:25 PM 55.4 °F 46.4 °F 72% 29.94 in 6.2 mi SSW 2.3 mph - N/A Rain Light Rain
6:31 PM 55.4 °F 46.4 °F 72% 29.94 in 6.2 mi SSW 3.5 mph - N/A   Mostly Cloudy
6:58 PM 55.9 °F 47.5 °F 73% 29.95 in 6.2 mi South 1.2 mph - 0.00 in   Overcast
7:10 PM 55.4 °F 48.2 °F 77% 29.95 in 6.2 mi South 2.3 mph - N/A Rain Light Rain
7:15 PM 55.4 °F 48.2 °F 77% 29.95 in 6.2 mi South 2.3 mph - N/A   Overcast
7:27 PM 55.4 °F 48.2 °F 77% 29.96 in 6.2 mi South 2.3 mph - N/A   Overcast
7:31 PM 55.4 °F 48.2 °F 77% 29.96 in 6.2 mi South 2.3 mph - N/A   Overcast
7:39 PM 55.4 °F 48.2 °F 77% 29.96 in 6.2 mi South 2.3 mph - N/A   Overcast
7:58 PM 55.2 °F 48.2 °F 77% 29.96 in 6.2 mi SSW 4.6 mph - 0.00 in   Overcast
8:58 PM 52.0 °F 46.8 °F 82% 29.97 in 6.2 mi SSW 6.9 mph - N/A   Clear
9:58 PM 51.6 °F 47.3 °F 85% 29.98 in 6.2 mi SSW 5.8 mph - N/A   Clear
10:58 PM 51.1 °F 46.9 °F 86% 29.99 in 6.2 mi SW 6.9 mph - N/A   Partly Cloudy
11:58 PM 50.2 °F 46.2 °F 86% 29.99 in 6.2 mi SW 4.6 mph - N/A   Clear